Location: Ithaca
(42.4410°N, 76.4970°W)
Time: 12:39:42
(UTC-05:00)

Hubble Space Telescope - Visible Passes

Search period start: 31 January 2015 00:00
Search period end: 10 February 2015 00:00
Orbit: 544 x 548 km, 28.5° (Epoch: 31 January)

Date Brightness Start Highest point End Pass type
(mag) Time Alt. Az. Time Alt. Az. Time Alt. Az.
31 Jan 3.4 19:38:44 10° SSW 19:39:39 11° S 19:39:39 11° S visible
01 Feb 3.5 17:51:02 10° S 17:51:36 10° S 17:52:14 10° SSE visible
01 Feb 3.4 19:30:44 10° SSW 19:32:08 11° S 19:32:12 11° S visible
02 Feb 3.4 19:22:55 10° SSW 19:23:58 11° S 19:24:46 10° S visible
